Time,TemperatureF,DewpointF,PressureIn,WindDirection,WindDirectionDegrees,WindSpeedMPH,WindSpeedGustMPH,Humidity,HourlyPrecipIn,Conditions,Clouds,dailyrainin,SolarRadiationWatts/m^2,SoftwareType,DateUTC
2013-05-06 00:01:00,53.0,45.0,-100.00,ESE,116,8.0,25.0,73,0.00,,,0.00,0.000000,,2013-05-06 07:01:00,
2013-05-06 00:11:00,52.0,45.0,-100.00,SE,135,15.0,23.0,77,0.00,,,0.00,0.000000,,2013-05-06 07:11:00,
2013-05-06 00:42:00,52.0,45.0,-100.00,SE,135,15.0,23.0,77,0.00,,,0.00,0.000000,,2013-05-06 07:42:00,
2013-05-06 00:52:00,52.0,45.0,-100.00,SE,135,15.0,23.0,77,0.00,,,0.00,0.000000,,2013-05-06 07:52:00,
2013-05-06 01:01:00,52.0,45.0,-100.00,SE,135,15.0,23.0,77,0.00,,,0.00,0.000000,,2013-05-06 08:01:00,
2013-05-06 01:11:00,53.0,46.0,-100.00,SE,126,11.0,19.0,76,0.00,,,0.00,0.000000,,2013-05-06 08:11:00,
2013-05-06 01:32:00,53.0,46.0,-100.00,SE,126,11.0,19.0,76,0.00,,,0.00,0.000000,,2013-05-06 08:32:00,
2013-05-06 01:42:00,53.0,46.0,-100.00,SE,126,11.0,19.0,76,0.00,,,0.00,0.000000,,2013-05-06 08:42:00,
2013-05-06 01:52:00,53.0,46.0,-100.00,SE,126,11.0,19.0,76,0.00,,,0.00,0.000000,,2013-05-06 08:52:00,
2013-05-06 02:01:00,53.0,46.0,-100.00,SE,126,11.0,19.0,76,0.00,,,0.00,0.000000,,2013-05-06 09:01:00,
2013-05-06 02:11:00,53.0,44.0,-100.00,SE,125,11.0,18.0,72,0.00,,,0.00,0.000000,,2013-05-06 09:11:00,
2013-05-06 02:33:00,53.0,44.0,-100.00,SE,125,11.0,18.0,72,0.00,,,0.00,0.000000,,2013-05-06 09:33:00,
2013-05-06 02:43:00,53.0,44.0,-100.00,SE,125,11.0,18.0,72,0.00,,,0.00,0.000000,,2013-05-06 09:43:00,
2013-05-06 02:53:00,53.0,44.0,-100.00,SE,125,11.0,18.0,72,0.00,,,0.00,0.000000,,2013-05-06 09:53:00,
2013-05-06 03:02:00,53.0,44.0,-100.00,SE,125,11.0,18.0,72,0.00,,,0.00,0.000000,,2013-05-06 10:02:00,
2013-05-06 03:11:00,53.0,45.0,-100.00,ESE,119,12.0,20.0,74,0.00,,,0.00,0.000000,,2013-05-06 10:11:00,
2013-05-06 03:42:00,53.0,45.0,-100.00,ESE,119,12.0,20.0,74,0.00,,,0.00,0.000000,,2013-05-06 10:42:00,
2013-05-06 03:52:00,53.0,45.0,-100.00,ESE,119,12.0,20.0,74,0.00,,,0.00,0.000000,,2013-05-06 10:52:00,
2013-05-06 04:02:00,53.0,45.0,-100.00,ESE,119,12.0,20.0,74,0.00,,,0.00,0.000000,,2013-05-06 11:02:00,
2013-05-06 04:11:00,52.0,46.0,-100.00,SE,131,8.0,18.0,80,0.00,,,0.00,0.000000,,2013-05-06 11:11:00,
2013-05-06 04:32:00,52.0,46.0,-100.00,SE,131,8.0,18.0,80,0.00,,,0.00,0.000000,,2013-05-06 11:32:00,
2013-05-06 04:42:00,52.0,46.0,-100.00,SE,131,8.0,18.0,80,0.00,,,0.00,0.000000,,2013-05-06 11:42:00,
2013-05-06 04:52:00,52.0,46.0,-100.00,SE,131,8.0,18.0,80,0.00,,,0.00,0.000000,,2013-05-06 11:52:00,
2013-05-06 05:01:00,52.0,46.0,-100.00,SE,131,8.0,18.0,80,0.00,,,0.00,0.000000,,2013-05-06 12:01:00,
2013-05-06 07:11:00,51.0,47.0,-100.00,SE,125,6.0,13.0,86,-99.99,,,0.00,10.000000,,2013-05-06 14:11:00,
2013-05-06 07:42:00,51.0,47.0,-100.00,SE,125,6.0,13.0,86,-99.99,,,0.00,10.000000,,2013-05-06 14:42:00,
2013-05-06 07:52:00,51.0,47.0,-100.00,SE,125,6.0,13.0,86,-99.99,,,0.00,10.000000,,2013-05-06 14:52:00,
2013-05-06 08:01:00,51.0,47.0,-100.00,SE,125,6.0,13.0,86,-99.99,,,0.00,10.000000,,2013-05-06 15:01:00,
2013-05-06 08:11:00,54.0,45.0,-100.00,SE,137,10.0,19.0,72,0.00,,,0.00,120.000000,,2013-05-06 15:11:00,
2013-05-06 08:33:00,54.0,45.0,-100.00,SE,137,10.0,19.0,72,0.00,,,0.00,120.000000,,2013-05-06 15:33:00,
2013-05-06 08:42:00,54.0,45.0,-100.00,SE,137,10.0,19.0,72,0.00,,,0.00,120.000000,,2013-05-06 15:42:00,
2013-05-06 08:53:00,54.0,45.0,-100.00,SE,137,10.0,19.0,72,0.00,,,0.00,120.000000,,2013-05-06 15:53:00,
2013-05-06 09:03:00,54.0,45.0,-100.00,SE,137,10.0,19.0,72,0.00,,,0.00,120.000000,,2013-05-06 16:03:00,
2013-05-06 09:11:00,53.0,46.0,-100.00,SE,128,10.0,19.0,77,0.00,,,0.00,113.000000,,2013-05-06 16:11:00,
2013-05-06 09:42:00,53.0,46.0,-100.00,SE,128,10.0,19.0,77,0.00,,,0.00,113.000000,,2013-05-06 16:42:00,
2013-05-06 09:52:00,53.0,46.0,-100.00,SE,128,10.0,19.0,77,0.00,,,0.00,113.000000,,2013-05-06 16:52:00,
2013-05-06 10:02:00,53.0,46.0,-100.00,SE,128,10.0,19.0,77,0.00,,,0.00,113.000000,,2013-05-06 17:02:00,
2013-05-06 10:11:00,57.0,45.0,-100.00,SE,128,10.0,18.0,65,0.00,,,0.00,285.000000,,2013-05-06 17:11:00,
2013-05-06 10:42:00,57.0,45.0,-100.00,SE,128,10.0,18.0,65,0.00,,,0.00,285.000000,,2013-05-06 17:42:00,
2013-05-06 10:52:00,57.0,45.0,-100.00,SE,128,10.0,18.0,65,0.00,,,0.00,285.000000,,2013-05-06 17:52:00,
2013-05-06 11:01:00,57.0,45.0,-100.00,SE,128,10.0,18.0,65,0.00,,,0.00,285.000000,,2013-05-06 18:01:00,
2013-05-06 11:11:00,57.0,41.0,-100.00,ESE,122,15.0,22.0,56,0.00,,,0.00,301.000000,,2013-05-06 18:11:00,
2013-05-06 11:43:00,57.0,41.0,-100.00,ESE,122,15.0,22.0,56,0.00,,,0.00,301.000000,,2013-05-06 18:43:00,
2013-05-06 11:52:00,57.0,41.0,-100.00,ESE,122,15.0,22.0,56,0.00,,,0.00,301.000000,,2013-05-06 18:52:00,
2013-05-06 12:01:00,57.0,41.0,-100.00,ESE,122,15.0,22.0,56,0.00,,,0.00,301.000000,,2013-05-06 19:01:00,
2013-05-06 12:11:00,60.0,41.0,-100.00,SE,126,12.0,23.0,50,0.00,,,-99.99,407.000000,,2013-05-06 19:11:00,
2013-05-06 12:42:00,60.0,41.0,-100.00,SE,126,12.0,23.0,50,0.00,,,-99.99,407.000000,,2013-05-06 19:42:00,
2013-05-06 12:52:00,60.0,41.0,-100.00,SE,126,12.0,23.0,50,0.00,,,-99.99,407.000000,,2013-05-06 19:52:00,
2013-05-06 13:01:00,60.0,41.0,-100.00,SE,126,12.0,23.0,50,0.00,,,-99.99,407.000000,,2013-05-06 20:01:00,
2013-05-06 13:11:00,60.0,41.0,-100.00,South,183,12.0,25.0,49,0.00,,,0.00,511.000000,,2013-05-06 20:11:00,
2013-05-06 13:32:00,60.0,41.0,-100.00,South,183,12.0,25.0,49,0.00,,,0.00,511.000000,,2013-05-06 20:32:00,
2013-05-06 13:42:00,60.0,41.0,-100.00,South,183,12.0,25.0,49,0.00,,,0.00,511.000000,,2013-05-06 20:42:00,
2013-05-06 13:52:00,60.0,41.0,-100.00,South,183,12.0,25.0,49,0.00,,,0.00,511.000000,,2013-05-06 20:52:00,
2013-05-06 14:01:00,60.0,41.0,-100.00,South,183,12.0,25.0,49,0.00,,,0.00,511.000000,,2013-05-06 21:01:00,
2013-05-06 14:11:00,60.0,42.0,-100.00,SSE,157,11.0,28.0,51,0.00,,,-99.99,520.000000,,2013-05-06 21:11:00,
2013-05-06 14:33:00,60.0,42.0,-100.00,SSE,157,11.0,28.0,51,0.00,,,-99.99,520.000000,,2013-05-06 21:33:00,
2013-05-06 14:43:00,60.0,42.0,-100.00,SSE,157,11.0,28.0,51,0.00,,,-99.99,520.000000,,2013-05-06 21:43:00,
2013-05-06 14:53:00,60.0,42.0,-100.00,SSE,157,11.0,28.0,51,0.00,,,-99.99,520.000000,,2013-05-06 21:53:00,
2013-05-06 15:03:00,60.0,42.0,-100.00,SSE,157,11.0,28.0,51,0.00,,,-99.99,520.000000,,2013-05-06 22:03:00,
2013-05-06 15:11:00,59.0,42.0,-100.00,SSE,162,11.0,24.0,53,0.00,,,0.00,321.000000,,2013-05-06 22:11:00,
2013-05-06 15:33:00,59.0,42.0,-100.00,SSE,162,11.0,24.0,53,0.00,,,0.00,321.000000,,2013-05-06 22:33:00,
2013-05-06 15:45:00,59.0,42.0,-100.00,SSE,162,11.0,24.0,53,0.00,,,0.00,321.000000,,2013-05-06 22:45:00,
2013-05-06 15:52:00,59.0,42.0,-100.00,SSE,162,11.0,24.0,53,0.00,,,0.00,321.000000,,2013-05-06 22:52:00,
2013-05-06 16:02:00,59.0,42.0,-100.00,SSE,162,11.0,24.0,53,0.00,,,0.00,321.000000,,2013-05-06 23:02:00,
2013-05-06 16:11:00,59.0,42.0,-100.00,SE,134,12.0,21.0,53,0.00,,,0.00,225.000000,,2013-05-06 23:11:00,
2013-05-06 16:32:00,59.0,42.0,-100.00,SE,134,12.0,21.0,53,0.00,,,0.00,225.000000,,2013-05-06 23:32:00,
2013-05-06 16:42:00,59.0,42.0,-100.00,SE,134,12.0,21.0,53,0.00,,,0.00,225.000000,,2013-05-06 23:42:00,
2013-05-06 16:52:00,59.0,42.0,-100.00,SE,134,12.0,21.0,53,0.00,,,0.00,225.000000,,2013-05-06 23:52:00,
2013-05-06 17:01:00,59.0,42.0,-100.00,SE,134,12.0,21.0,53,0.00,,,0.00,225.000000,,2013-05-07 00:01:00,
2013-05-06 18:11:00,60.0,42.0,-100.00,SSE,160,8.0,20.0,52,-99.99,,,-99.99,345.000000,,2013-05-07 01:11:00,
2013-05-06 18:32:00,60.0,42.0,-100.00,SSE,160,8.0,20.0,52,-99.99,,,-99.99,345.000000,,2013-05-07 01:32:00,
2013-05-06 18:42:00,60.0,42.0,-100.00,SSE,160,8.0,20.0,52,-99.99,,,-99.99,345.000000,,2013-05-07 01:42:00,
2013-05-06 18:52:00,60.0,42.0,-100.00,SSE,160,8.0,20.0,52,-99.99,,,-99.99,345.000000,,2013-05-07 01:52:00,
2013-05-06 19:02:00,60.0,42.0,-100.00,SSE,160,8.0,20.0,52,-99.99,,,-99.99,345.000000,,2013-05-07 02:02:00,
2013-05-06 19:11:00,57.0,41.0,-100.00,South,178,6.0,16.0,55,0.00,,,0.00,130.000000,,2013-05-07 02:11:00,
2013-05-06 19:32:00,57.0,41.0,-100.00,South,178,6.0,16.0,55,0.00,,,0.00,130.000000,,2013-05-07 02:32:00,
2013-05-06 19:42:00,57.0,41.0,-100.00,South,178,6.0,16.0,55,0.00,,,0.00,130.000000,,2013-05-07 02:42:00,
2013-05-06 19:52:00,57.0,41.0,-100.00,South,178,6.0,16.0,55,0.00,,,0.00,130.000000,,2013-05-07 02:52:00,
2013-05-06 20:01:00,57.0,41.0,-100.00,South,178,6.0,16.0,55,0.00,,,0.00,130.000000,,2013-05-07 03:01:00,
2013-05-06 20:11:00,56.0,41.0,-100.00,SE,130,9.0,16.0,58,0.00,,,0.00,24.000000,,2013-05-07 03:11:00,
2013-05-06 20:43:00,56.0,41.0,-100.00,SE,130,9.0,16.0,58,0.00,,,0.00,24.000000,,2013-05-07 03:43:00,
2013-05-06 20:53:00,56.0,41.0,-100.00,SE,130,9.0,16.0,58,0.00,,,0.00,24.000000,,2013-05-07 03:53:00,
2013-05-06 21:02:00,56.0,41.0,-100.00,SE,130,9.0,16.0,58,0.00,,,0.00,24.000000,,2013-05-07 04:02:00,
2013-05-06 21:11:00,55.0,41.0,-100.00,ESE,122,8.0,13.0,60,0.00,,,0.00,0.000000,,2013-05-07 04:11:00,
2013-05-06 21:42:00,55.0,41.0,-100.00,ESE,122,8.0,13.0,60,0.00,,,0.00,0.000000,,2013-05-07 04:42:00,
2013-05-06 21:53:00,55.0,41.0,-100.00,ESE,122,8.0,13.0,60,0.00,,,0.00,0.000000,,2013-05-07 04:53:00,
2013-05-06 22:02:00,55.0,41.0,-100.00,ESE,122,8.0,13.0,60,0.00,,,0.00,0.000000,,2013-05-07 05:02:00,
2013-05-06 22:11:00,55.0,42.0,-100.00,SE,128,5.0,13.0,61,0.00,,,0.00,0.000000,,2013-05-07 05:11:00,
2013-05-06 22:32:00,55.0,42.0,-100.00,SE,128,5.0,13.0,61,0.00,,,0.00,0.000000,,2013-05-07 05:32:00,
2013-05-06 22:42:00,55.0,42.0,-100.00,SE,128,5.0,13.0,61,0.00,,,0.00,0.000000,,2013-05-07 05:42:00,
2013-05-06 22:52:00,55.0,42.0,-100.00,SE,128,5.0,13.0,61,0.00,,,0.00,0.000000,,2013-05-07 05:52:00,
2013-05-06 23:02:00,55.0,42.0,-100.00,SE,128,5.0,13.0,61,0.00,,,0.00,0.000000,,2013-05-07 06:02:00,
2013-05-06 23:11:00,55.0,43.0,-100.00,SE,126,7.0,12.0,64,0.00,,,0.00,0.000000,,2013-05-07 06:11:00,
2013-05-06 23:32:00,55.0,43.0,-100.00,SE,126,7.0,12.0,64,0.00,,,0.00,0.000000,,2013-05-07 06:32:00,
2013-05-06 23:42:00,55.0,43.0,-100.00,SE,126,7.0,12.0,64,0.00,,,0.00,0.000000,,2013-05-07 06:42:00,
2013-05-06 23:52:00,55.0,43.0,-100.00,SE,126,7.0,12.0,64,0.00,,,0.00,0.000000,,2013-05-07 06:52:00,